Weather History for KPHD - November, 2013

Change the Weather History Date:

Saturday, November 30, 2013

  Actual Average Record
Temperature  
Mean Temperature 28 °F 38 °F  
Max Temperature 40 °F 46 °F 66 °F (1998)
Min Temperature 16 °F 29 °F 4 °F (1976)
Degree Days  
Heating Degree Days 37 27  
Month to date heating degree days 786 659  
Since 1 July heating degree days 1236 1158  
Cooling Degree Days 0 0  
Month to date cooling degree days 0 0  
Year to date cooling degree days 755 697  
Moisture  
Dew Point 20 °F    
Average Humidity 67    
Maximum Humidity 84    
Minimum Humidity 50    
Precipitation  
Precipitation 0.00 in 0.12 in 1.06 in (2010)
Month to date precipitation 3.23 3.27  
Year to date precipitation 31.24 36.23  
Sea Level Pressure  
Sea Level Pressure 30.42 in    
Wind  
Wind Speed 5 mph (SE)    
Max Wind Speed 6 mph    
Max Gust Speed 8 mph    
Visibility 9 miles    
Events      
T = Trace of Precipitation, MM = Missing Value Source: NWS Daily Summary

Daily Weather History Graph

Daily Weather History Graph

Search for Another Location

Airport or City:

Trip Planner

Search our weather history database for the weather conditions in past years. The results will help you decide how hot, cold, wet, or windy it might be!

Date:

Astronomy

Nov. 30, 2013 Rise Set
Actual Time 7:28 AM EST 4:59 PM EST
Civil Twilight 6:58 AM EST 5:30 PM EST
Nautical Twilight 6:24 AM EST 6:03 PM EST
Astronomical Twilight 5:52 AM EST 6:36 PM EST
Moon 4:37 AM EST (11/30) 3:23 PM EST (11/30)
Length of Visible Light 10h 31m
Length of Day
9h 30m
Waning Crescent, 7% of the Moon is Illuminated
Nov 30
Waning Crescent
Dec 2
New
Dec 9
First Quarter
Dec 17
Full
Dec 25
Last Quarter

Hourly Weather History & Observations

Time (EST) Temp. Windchill Dew Point Humidity Pressure Visibility Wind Dir Wind Speed Gust Speed Precip Events Conditions
12:53 AM 21.0 °F 16.2 °F 17.1 °F 85% 30.61 in 8.0 mi SE 3.5 mph - N/A   Clear
1:53 AM 19.9 °F 14.9 °F 16.0 °F 85% 30.60 in 7.0 mi ESE 3.5 mph - N/A   Clear
2:53 AM 19.0 °F 13.9 °F 15.1 °F 85% 30.59 in 8.0 mi SE 3.5 mph - N/A   Clear
3:53 AM 19.0 °F - 15.1 °F 85% 30.57 in 8.0 mi Calm Calm - N/A   Clear
4:53 AM 18.0 °F - 14.0 °F 84% 30.56 in 7.0 mi Calm Calm - N/A   Clear
5:53 AM 19.0 °F - 15.1 °F 85% 30.55 in 7.0 mi Calm Calm - N/A   Clear
6:53 AM 21.9 °F 15.7 °F 17.1 °F 82% 30.54 in 9.0 mi SE 4.6 mph - N/A   Clear
7:53 AM 24.1 °F 17.0 °F 18.0 °F 77% 30.52 in 9.0 mi SE 5.8 mph - N/A   Clear
8:53 AM 25.0 °F 17.1 °F 18.0 °F 75% 30.52 in 10.0 mi SE 6.9 mph - N/A   Clear
9:53 AM 27.0 °F 20.5 °F 19.0 °F 72% 30.50 in 10.0 mi SE 5.8 mph - N/A   Clear
10:53 AM 30.0 °F 24.1 °F 21.0 °F 69% 30.48 in 10.0 mi SE 5.8 mph - N/A   Clear
11:53 AM 33.1 °F 27.7 °F 21.9 °F 64% 30.43 in 10.0 mi SE 5.8 mph - N/A   Clear
12:53 PM 34.0 °F 28.8 °F 23.0 °F 64% 30.41 in 10.0 mi ESE 5.8 mph - N/A   Clear
1:53 PM 37.9 °F 31.5 °F 23.0 °F 55% 30.37 in 10.0 mi South 9.2 mph - N/A   Clear
2:53 PM 39.0 °F 34.8 °F 23.0 °F 53% 30.33 in 10.0 mi SSE 5.8 mph - N/A   Clear
3:53 PM 39.9 °F 34.5 °F 24.1 °F 53% 30.31 in 10.0 mi SSE 8.1 mph - N/A   Clear
4:53 PM 37.9 °F 34.4 °F 23.0 °F 55% 30.30 in 10.0 mi SSE 4.6 mph - N/A   Clear
5:53 PM 34.0 °F 31.0 °F 24.1 °F 67% 30.29 in 10.0 mi ESE 3.5 mph - N/A   Clear
6:53 PM 28.0 °F 24.2 °F 21.9 °F 78% 30.29 in 10.0 mi ESE 3.5 mph - N/A   Clear
7:53 PM 30.0 °F 25.2 °F 23.0 °F 75% 30.28 in 10.0 mi SE 4.6 mph - N/A   Clear
8:53 PM 28.9 °F 23.9 °F 23.0 °F 78% 30.27 in 10.0 mi SE 4.6 mph - N/A   Clear
9:53 PM 26.1 °F 20.5 °F 23.0 °F 88% 30.26 in 10.0 mi SSE 4.6 mph - N/A   Clear
10:53 PM 26.1 °F 20.5 °F 23.0 °F 88% 30.25 in 10.0 mi SE 4.6 mph - N/A   Partly Cloudy
11:53 PM 26.1 °F 19.4 °F 21.9 °F 84% 30.23 in 9.0 mi SE 5.8 mph - N/A   Mostly Cloudy